Regional Weather Roundup
Issued by NWS Albany, NY

Home | Current Version | Previous Version | Text Only | Print | Product List | Glossary On
Versions: 1 2 3 4 5 6 7 8 9 10 11 12 13 14 15 16 17 18 19 20 21 22 23 24 25 26 27 28 29 30 31 32 33 34 35 36 37 38 39 40 41 42 43 44 45 46 47 48 49 50
000
ASUS41 KALY 312110
RWRALY

NEW YORK STATE HOURLY WEATHER ROUNDUP
NATIONAL WEATHER SERVICE ALBANY NY
500 PM EDT THU JUL 31 2014

NOTE: "FAIR" INDICATES FEW OR NO CLOUDS BELOW 12,000 FEET WITH NO
SIGNIFICANT WEATHER AND/OR NO OBSTRUCTIONS TO VISIBILITY.

NYZ032-033-038>043-046>054-057>066-NYZ062>081-312200-
EAST


CITY           SKY/WX    TMP DP  RH WIND       PRES   REMARKS
ALBANY         PTSUNNY   75  65  70 E9        30.05R
GLENS FALLS    SUNNY     75  60  59 S8        30.04F
POUGHKEEPSIE   CLOUDY    77  60  55 W6        30.06R
NEWBURGH       PTSUNNY   77  63  61 NW8       30.09R
MONTGOMERY     MOSUNNY   79  61  53 NW5       30.07S
WHITE PLAINS   MOSUNNY   78  60  53 VRB6G16   30.09R
ISLIP          MOSUNNY   79  57  46 S13       30.10R
NEW YORK CITY  PTSUNNY   79  62  56 S14       30.08S
CENTRAL PARK   PTSUNNY   78  63  59 VRB3      30.11S
$$

NYZ005>009-017-018-044>046-055-056-312200-
CENTRAL


CITY           SKY/WX    TMP DP  RH WIND       PRES   REMARKS
FULTON         LGT RAIN  63  59  87 S6        30.06R FOG
SYRACUSE       PTSUNNY   76  55  48 SW7       30.03S
ROME           SUNNY     72  61  68 SE6       30.06S
ELMIRA         MOSUNNY   79  54  41 VRB7      30.05S
BINGHAMTON     SUNNY     73  54  51 SW10      30.09S
MONTICELLO     MOSUNNY   72  59  64 W6        30.12S
$$

NYZ026>034-041>043-312200-
NORTH


CITY           SKY/WX    TMP DP  RH WIND       PRES   REMARKS
WATERTOWN      MOSUNNY   73  54  51 SW8G18    30.03S
FORT DRUM      NOT AVBL
MASSENA        MOSUNNY   70  60  70 SW7       30.01F
SARANAC LAKE   MOSUNNY   66  57  72 SW9       30.05S
PLATTSBURGH    LGT RAIN  66  63  90 S7        30.03S
$$

NYZ001>004-010>016-019>021-312200-
WEST


CITY           SKY/WX    TMP DP  RH WIND       PRES   REMARKS
NIAGARA FALLS  MOSUNNY   74  55  51 SW15      30.02S
BUFFALO        MOSUNNY   73  51  46 SW17G24   30.04R
DUNKIRK        SUNNY     72  52  49 W17G25    30.07R
JAMESTOWN      PTSUNNY   70  57  64 SW10      30.09S
WELLSVILLE     SUNNY     73  49  42 W14G22    30.11S
ROCHESTER      MOSUNNY   74  56  53 W9        30.04R
PENN YAN       MOSUNNY   73  61  65 W7        30.06S
$$

             KEY
       WCI = WIND CHILL INDEX
       VSB = VISIBILITY
       HX  = HEAT INDEX
$$



USA.gov is the U.S. government's official web portal to all federal, state and local government web resources and services.